Regional Weather Roundup
Issued by NWS

Home | Current Version | Previous Version | Graphics & Text | Print | Product List | Glossary On
Versions: 1 2 3 4 5 6 7 8 9 10 11 12 13 14 15 16 17 18 19 20 21 22 23 24 25 26 27 28 29 30 31 32 33 34 35 36 37 38 39 40 41 42 43 44 45 46 47 48 49 50
000
ASUS43 KFSD 020110
RWRSD

WEATHER ROUNDUP FOR SOUTH DAKOTA
NATIONAL WEATHER SERVICE SIOUX FALLS SD
800 PM CDT WED APR 01 2015

NOTE: "FAIR" INDICATES FEW OR NO CLOUDS BELOW 12,000 FEET WITH NO
SIGNIFICANT WEATHER AND/OR OBSTRUCTIONS TO VISIBILITY.


SDZ001>005-009-010-012>017-020200-
NORTHWEST AND NORTH CENTRAL SOUTH DAKOTA

CITY           SKY/WX    TMP DP  RH WIND       PRES   REMARKS
BUFFALO          N/A     51   9  18 NW17      29.72R
FAITH            N/A     53   9  17 NW14      29.76R
MOBRIDGE       CLOUDY    57  26  30 NW17      29.69R
$$

SDZ012>016-024>037-041>051-057-063-072>074-020200-
SOUTHWEST AND SOUTH CENTRAL SOUTH DAKOTA

CITY           SKY/WX    TMP DP  RH WIND       PRES   REMARKS
RAPID CTY ARPT PTCLDY    50  19  29 NW15      29.81R
PIERRE         MOCLDY    55  23  28 NW13      29.72R
CUSTER         PTCLDY    41  18  39 NW7G20    29.83R
ELLSWORTH AFB  PTCLDY    50  20  30 NW15      29.80R
PHILIP         CLOUDY    57  11  16 NW17      29.78R
PINE RIDGE     MOCLDY    50  22  33 N13G23    29.82R
SPEARFISH      FAIR      46   9  21 NW12G17   29.84R
WINNER         FAIR      60  22  23 NW23G36   29.73R
$$

SDZ004>011-016>023-039-040-020200-
NORTHEAST SOUTH DAKOTA

CITY           SKY/WX    TMP DP  RH WIND       PRES   REMARKS
ABERDEEN       MOCLDY    61  27  27 NW22G28   29.64R
WATERTOWN      PTCLDY    56  36  47 NW10      29.59R
BROOKINGS      MOCLDY    63  39  42 NW14      29.58R
SISSETON         N/A     59  32  36 NW20      29.56R
$$

SDZ017-020-022-023-036>040-048>070-020200-
SOUTHEAST SOUTH DAKOTA

CITY           SKY/WX    TMP DP  RH WIND       PRES   REMARKS
SIOUX FALLS    CLOUDY    64  39  39 NW5       29.59R
HURON          PTCLDY    61  28  28 NW18G24   29.63R
CHAMBERLAIN    CLOUDY    59  24  25 NW18G30   29.70R
MITCHELL       MOCLDY    64  32  30 NW21      29.62R
YANKTON        MOCLDY    64  39  39 NW12      29.59F
$$

ABBREVIATIONS USED IN REMARKS
   TC - TEMPERATURE IN CELSIUS
  WCI - WIND CHILL INDEX
   HX - HEAT INDEX
  VSB - VISIBILITY



USA.gov is the U.S. government's official web portal to all federal, state and local government web resources and services.